Regional Weather Roundup
Issued by NWS

Home | Current Version | Previous Version | Text Only | Print | Product List | Glossary On
Versions: 1 2 3 4 5 6 7 8 9 10 11 12 13 14 15 16 17 18 19 20 21 22 23 24 25 26 27 28 29 30 31 32 33 34 35 36 37 38 39 40 41 42 43 44 45 46 47 48 49 50
000
ASUS43 KDTX 040101
RWRMI
MICHIGAN HOURLY REGIONAL WEATHER ROUNDUP
NATIONAL WEATHER SERVICE DETROIT/PONTIAC MI
900 PM EDT MON AUG 03 2015

NOTE: "FAIR" INDICATES FEW OR NO CLOUDS BELOW 12,000 FEET WITH NO
SIGNIFICANT WEATHER AND/OR OBSTRUCTION TO VISIBILITY.

MIZ047>049-052>055-059>063-066>070-074>076-081>083-040200-
SOUTHEAST LOWER MICHIGAN

CITY           SKY/WX    TMP DP  RH WIND       PRES   REMARKS
ADRIAN         CLEAR     69  50  50 W7        29.87R
ALMA           CLEAR     67  53  59 W3        29.83R
ANN ARBOR      CLEAR     70  50  49 W13       29.84R
BAD AXE        CLOUDY    67  59  75 CALM      29.81R
CARO           CLOUDY    68  64  85 CALM      29.81R
DETROIT CITY   CLEAR     76  50  40 NW8       29.81R
DETROIT        PTCLDY    73  50  44 W12       29.83R
FLINT          PTCLDY    70  52  52 W7        29.82R
GROSSE ILE     PTCLDY    73  54  49 W9        29.81R
HILLSDALE      CLEAR     67  51  54 W5        29.88R
HOWELL         CLEAR     68  50  51 W7        29.84R

CITY           SKY/WX    TMP DP  RH WIND       PRES   REMARKS
JACKSON        CLEAR     67  52  58 W6        29.86R
LAMBERTVILLE   CLEAR     73  53  49 W7        29.86R
LANSING        CLEAR     68  51  54 W7        29.85R
LAPEER         CLOUDY    71  55  58 W3        29.82R
MASON          CLEAR     67  50  54 W3        29.85R
MONROE         CLEAR     71  55  57 W9        29.83R
MT. CLEMENS    PTCLDY    72  60  66 NW2       29.79R
PONTIAC        PTCLDY    70  53  54 W10       29.82R
PORT HURON     CLOUDY    64  61  88 CALM      29.81R
TRI CITIES     CLOUDY    71  54  54 W7        29.82R
MIDLAND        FAIR      71  51  50 W5        29.81R
TROY           CLEAR     75  50  41 W7        29.84R
SAGINAW HB     CLOUDY    72  54  53 W8        29.81R
$$
MIZ043>046-050>051-056>058-064>065-071>073-077>080-040200-
SOUTHWEST LOWER MICHIGAN

CITY           SKY/WX    TMP DP  RH WIND       PRES   REMARKS
BATTLE CREEK     N/A    N/A N/A N/A MISG      29.87R
BENTON HARBOR  CLEAR     67  56  67 CALM      29.86S
BIG RAPIDS     CLOUDY    68  51  54 W5        29.82S
COLDWATER      CLEAR     66  53  63 SW3       29.88R
FREMONT        MOCLDY    67  53  60 SW3       29.83R
HOLLAND        CLEAR     67  57  70 SW5       29.86R
GRAND RAPIDS   PTCLDY    71  50  47 W7        29.85R
IONIA          FAIR      70  50  49 W6        29.84R
KALAMAZOO      CLEAR     71  51  49 W3        29.87R
LUDINGTON      CLOUDY    71  60  68 SW5       29.83R
MARSHALL       CLEAR     65  53  63 W5        29.86S
MOUNT PLEASANT CLEAR     70  52  53 W3        29.82R
MUSKEGON       PTCLDY    68  56  65 SW6       29.84R
SOUTH HAVEN    PTCLDY    66  56  69 CALM      29.86S
$$
MIZ016>042-040200-
NORTHERN LOWER MICHIGAN

CITY           SKY/WX    TMP DP  RH WIND       PRES   REMARKS
ALPENA         LGT RAIN  66  54  65 W3        29.79R
BEAVER ISLAND  FOG       59  57  94 CALM      29.80S VSB 1/4
BELLAIRE       CLOUDY    63  59  86 CALM      29.80S
CADILLAC       CLOUDY    67  53  61 CALM      29.83R
CHARLEVOIX     MOCLDY    64  59  85 CALM      29.83S
FRANKFORT      CLEAR     68  59  74 W3        29.81S
GAYLORD        MOCLDY    61  59  93 W3        29.82S
GRAYLING       CLOUDY    63  53  69 W6        29.83R
HARBOR SPRINGS PTCLDY    62  57  85 CALM      29.81R
HOUGHTON LAKE  CLOUDY    68  50  52 W9        29.83R
MANISTEE       CLEAR     68  54  60 W7        29.82S
OSCODA         CLOUDY    66  59  77 NE6       29.79R
PELLSTON       PTCLDY    62  58  86 W3        29.80R
ROGERS CITY    CLOUDY    64  57  80 W10       29.80R
TRAVERSE CITY  PTCLDY    68  54  60 CALM      29.79R
$$
MIZ007>008-015-040200-
EASTERN UPPER MICHIGAN

CITY           SKY/WX    TMP DP  RH WIND       PRES   REMARKS
KINROSS        MOCLDY    59  54  82 NW7       29.79R
MACKINAC ISLAN PTCLDY    63  56  78 W8        29.79R
NEWBERRY       MOCLDY    60  52  74 NW3       29.80R
S. S. MARIE    CLOUDY    60  52  74 NW6       29.78R
MUNISING         N/A     66  55  67 N3        29.79R
$$
MIZ004>006-011>014-085-040200-
CENTRAL UPPER MICHIGAN

CITY           SKY/WX    TMP DP  RH WIND       PRES   REMARKS
ESCANABA       CLOUDY    66  52  59 NW3       29.79S
MENOMINEE      CLEAR     68  50  52 CALM      29.81S
SAWYER-GWINN   MOCLDY    66  50  55 NW10      29.81R
$$
MIZ001>003-009>011-084-040200-
WESTERN UPPER MICHIGAN

CITY           SKY/WX    TMP DP  RH WIND       PRES   REMARKS
IRON MOUNTAIN  PTCLDY    65  52  62 W5        29.82R
HOUGHTON       CLOUDY    64  52  64 W13       29.78S
COPPER HARBOR    N/A     63  53  70 N12G21    29.77R
IRONWOOD       MOCLDY    59  57  94 NW6       29.84S
$$

ABBREVIATIONS USED IN REMARKS
   TC - TEMPERATURE IN CELSIUS
  WCI - WIND CHILL INDEX
   HX - HEAT INDEX
  VSB - VISIBILITY




USA.gov is the U.S. government's official web portal to all federal, state and local government web resources and services.